Time,TemperatureF,DewpointF,PressureIn,WindDirection,WindDirectionDegrees,WindSpeedMPH,WindSpeedGustMPH,Humidity,HourlyPrecipIn,Conditions,Clouds,dailyrainin,SoftwareType,DateUTC
2013-05-03 00:00:00,45.1,41.2,29.84,SW,222,7.0,15.0,86,0.00,RA,,0.00,WeatherDisplay:10.37,2013-05-02 23:00:00,
2013-05-03 00:10:00,45.1,41.2,29.84,WSW,244,12.0,15.0,86,0.00,CLR,,0.00,WeatherDisplay:10.37,2013-05-02 23:10:00,
2013-05-03 00:20:00,45.3,41.4,29.84,SW,221,8.0,13.0,86,0.00,CLR,,0.00,WeatherDisplay:10.37,2013-05-02 23:20:00,
2013-05-03 00:30:00,45.5,41.6,29.83,SSW,208,15.0,20.0,86,0.00,CLR,,0.00,WeatherDisplay:10.37,2013-05-02 23:30:00,
2013-05-03 00:40:00,45.5,41.6,29.83,SSW,213,14.0,19.0,86,0.00,CLR,,0.00,WeatherDisplay:10.37,2013-05-02 23:40:00,
2013-05-03 00:50:00,45.5,41.3,29.84,SSW,211,12.0,20.0,85,0.00,CLR,,0.00,WeatherDisplay:10.37,2013-05-02 23:50:00,
2013-05-03 01:00:00,45.8,41.5,29.83,SSW,211,12.0,22.0,85,0.00,CLR,,0.00,WeatherDisplay:10.37,2013-05-03 00:00:00,
2013-05-03 01:10:00,45.7,41.2,29.83,SW,231,12.0,22.0,84,0.00,CLR,,0.00,WeatherDisplay:10.37,2013-05-03 00:10:00,
2013-05-03 01:20:00,45.5,40.6,29.82,SW,225,14.0,20.0,83,0.00,CLR,,0.00,WeatherDisplay:10.37,2013-05-03 00:20:00,
2013-05-03 01:30:00,45.5,40.0,29.82,SW,221,12.0,19.0,81,0.00,CLR,,0.00,WeatherDisplay:10.37,2013-05-03 00:30:00,
2013-05-03 01:40:00,45.6,40.1,29.82,SW,214,15.0,20.0,81,0.00,CLR,,0.00,WeatherDisplay:10.37,2013-05-03 00:40:00,
2013-05-03 01:50:00,45.7,40.2,29.81,WSW,239,8.0,23.0,81,0.00,CLR,,0.00,WeatherDisplay:10.37,2013-05-03 00:50:00,
2013-05-03 02:00:00,45.5,39.7,29.81,SW,215,18.0,22.0,80,0.00,CLR,,0.00,WeatherDisplay:10.37,2013-05-03 01:00:00,
2013-05-03 02:10:00,45.6,39.8,29.81,SSW,213,6.0,22.0,80,0.00,CLR,,0.00,WeatherDisplay:10.37,2013-05-03 01:10:00,
2013-05-03 02:20:00,45.5,39.7,29.81,SW,217,13.0,20.0,80,0.00,CLR,,0.00,WeatherDisplay:10.37,2013-05-03 01:20:00,
2013-05-03 02:30:00,45.9,40.0,29.80,WSW,243,12.0,20.0,80,0.00,CLR,,0.00,WeatherDisplay:10.37,2013-05-03 01:30:00,
2013-05-03 02:40:00,45.9,39.7,29.80,SW,218,13.0,22.0,79,0.00,CLR,,0.00,WeatherDisplay:10.37,2013-05-03 01:40:00,
2013-05-03 02:50:00,45.9,39.7,29.80,SW,227,13.0,22.0,79,0.00,CLR,,0.00,WeatherDisplay:10.37,2013-05-03 01:50:00,
2013-05-03 03:00:00,45.5,39.4,29.79,WSW,238,3.0,17.0,79,0.00,CLR,,0.00,WeatherDisplay:10.37,2013-05-03 02:00:00,
2013-05-03 03:10:00,45.5,39.7,29.79,SW,220,12.0,20.0,80,0.00,CLR,,0.00,WeatherDisplay:10.37,2013-05-03 02:10:00,
2013-05-03 03:20:00,45.3,39.5,29.79,SW,232,15.0,19.0,80,0.00,CLR,,0.00,WeatherDisplay:10.37,2013-05-03 02:20:00,
2013-05-03 03:30:00,45.3,39.8,29.79,SW,230,8.0,19.0,81,0.00,CLR,,0.00,WeatherDisplay:10.37,2013-05-03 02:30:00,
2013-05-03 03:40:00,45.3,39.8,29.79,SW,232,12.0,18.0,81,0.00,CLR,,0.00,WeatherDisplay:10.37,2013-05-03 02:40:00,
2013-05-03 03:50:00,45.4,39.9,29.78,WSW,247,5.0,18.0,81,0.00,CLR,,0.00,WeatherDisplay:10.37,2013-05-03 02:50:00,
2013-05-03 04:00:00,45.7,40.2,29.78,WSW,243,8.0,20.0,81,0.00,CLR,,0.00,WeatherDisplay:10.37,2013-05-03 03:00:00,
2013-05-03 04:10:00,45.8,40.3,29.78,WSW,240,7.0,20.0,81,0.00,CLR,,0.00,WeatherDisplay:10.37,2013-05-03 03:10:00,
2013-05-03 04:20:00,45.7,40.2,29.77,WSW,247,5.0,24.0,81,0.00,CLR,,0.00,WeatherDisplay:10.37,2013-05-03 03:20:00,
2013-05-03 04:30:00,45.5,40.0,29.77,WSW,241,8.0,17.0,81,0.00,CLR,,0.00,WeatherDisplay:10.37,2013-05-03 03:30:00,
2013-05-03 04:40:00,45.5,40.0,29.77,WSW,252,7.0,20.0,81,0.00,CLR,,0.00,WeatherDisplay:10.37,2013-05-03 03:40:00,
2013-05-03 04:50:00,45.4,39.9,29.77,WSW,253,10.0,16.0,81,0.00,CLR,,0.00,WeatherDisplay:10.37,2013-05-03 03:50:00,
2013-05-03 05:00:00,45.5,40.0,29.76,SW,234,6.0,17.0,81,0.00,CLR,,0.00,WeatherDisplay:10.37,2013-05-03 04:00:00,
2013-05-03 05:10:00,45.9,40.4,29.77,SW,230,7.0,21.0,81,0.00,CLR,,0.00,WeatherDisplay:10.37,2013-05-03 04:10:00,
2013-05-03 05:20:00,46.0,40.2,29.76,WSW,243,12.0,20.0,80,0.00,CLR,,0.00,WeatherDisplay:10.37,2013-05-03 04:20:00,
2013-05-03 05:30:00,46.0,40.2,29.76,WSW,249,12.0,20.0,80,0.00,CLR,,0.00,WeatherDisplay:10.37,2013-05-03 04:30:00,
2013-05-03 05:40:00,46.0,39.9,29.76,WSW,255,10.0,22.0,79,0.00,CLR,,0.00,WeatherDisplay:10.37,2013-05-03 04:40:00,
2013-05-03 05:50:00,46.0,39.9,29.76,WSW,247,8.0,18.0,79,0.00,CLR,,0.00,WeatherDisplay:10.37,2013-05-03 04:50:00,
2013-05-03 06:00:00,46.0,39.9,29.76,WSW,252,9.0,18.0,79,0.00,CLR,,0.00,WeatherDisplay:10.37,2013-05-03 05:00:00,
2013-05-03 06:10:00,46.0,39.9,29.76,WSW,258,6.0,20.0,79,0.00,CLR,,0.00,WeatherDisplay:10.37,2013-05-03 05:10:00,
2013-05-03 06:20:00,46.0,39.9,29.76,WSW,243,20.0,23.0,79,0.00,CLR,,0.00,WeatherDisplay:10.37,2013-05-03 05:20:00,
2013-05-03 06:30:00,45.8,39.7,29.76,WSW,256,7.0,15.0,79,0.00,CLR,,0.00,WeatherDisplay:10.37,2013-05-03 05:30:00,
2013-05-03 06:40:00,45.7,39.5,29.76,WSW,258,8.0,16.0,79,0.00,CLR,,0.00,WeatherDisplay:10.37,2013-05-03 05:40:00,
2013-05-03 06:50:00,45.6,39.5,29.76,WSW,250,6.0,16.0,79,0.00,CLR,,0.00,WeatherDisplay:10.37,2013-05-03 05:50:00,
2013-05-03 07:00:00,45.9,40.0,29.76,WSW,251,5.0,13.0,80,0.00,CLR,,0.00,WeatherDisplay:10.37,2013-05-03 06:00:00,
2013-05-03 07:10:00,45.7,39.9,29.77,West,262,3.0,9.0,80,0.00,CLR,,0.00,WeatherDisplay:10.37,2013-05-03 06:10:00,
2013-05-03 07:20:00,45.6,39.8,29.77,WSW,245,7.0,11.0,80,0.00,CLR,,0.00,WeatherDisplay:10.37,2013-05-03 06:20:00,
2013-05-03 07:30:00,45.5,39.7,29.77,SW,236,6.0,12.0,80,0.00,CLR,,0.00,WeatherDisplay:10.37,2013-05-03 06:30:00,
2013-05-03 07:40:00,45.9,40.4,29.77,WSW,243,7.0,14.0,81,0.00,CLR,,0.00,WeatherDisplay:10.37,2013-05-03 06:40:00,
2013-05-03 07:50:00,46.6,41.4,29.76,SW,230,7.0,16.0,82,0.00,CLR,,0.00,WeatherDisplay:10.37,2013-05-03 06:50:00,
2013-05-03 08:00:00,47.4,42.2,29.76,SW,218,7.0,16.0,82,0.00,CLR,,0.00,WeatherDisplay:10.37,2013-05-03 07:00:00,
2013-05-03 08:10:00,48.4,42.5,29.76,WSW,237,7.0,21.0,80,0.00,CLR,,0.00,WeatherDisplay:10.37,2013-05-03 07:10:00,
2013-05-03 08:20:00,48.1,41.9,29.76,WSW,252,8.0,18.0,79,0.00,CLR,,0.00,WeatherDisplay:10.37,2013-05-03 07:20:00,
2013-05-03 08:30:00,48.9,42.7,29.76,WSW,254,5.0,17.0,79,0.00,CLR,,0.00,WeatherDisplay:10.37,2013-05-03 07:30:00,
2013-05-03 08:40:00,49.6,42.7,29.76,WSW,252,12.0,17.0,77,0.00,CLR,,0.00,WeatherDisplay:10.37,2013-05-03 07:40:00,
2013-05-03 08:50:00,49.5,41.9,29.76,West,267,6.0,15.0,75,0.00,CLR,,0.00,WeatherDisplay:10.37,2013-05-03 07:50:00,
2013-05-03 09:00:00,49.3,41.3,29.76,West,276,3.0,13.0,74,0.00,CLR,,0.00,WeatherDisplay:10.37,2013-05-03 08:00:00,
2013-05-03 09:10:00,49.1,41.2,29.76,West,277,9.0,15.0,74,0.00,CLR,,0.00,WeatherDisplay:10.37,2013-05-03 08:10:00,
2013-05-03 09:20:00,48.6,41.1,29.76,West,279,5.0,10.0,75,0.00,CLR,,0.00,WeatherDisplay:10.37,2013-05-03 08:20:00,
2013-05-03 09:30:00,49.5,41.9,29.76,WSW,256,5.0,11.0,75,0.00,CLR,,0.00,WeatherDisplay:10.37,2013-05-03 08:30:00,
2013-05-03 09:40:00,50.2,42.6,29.76,WSW,258,6.0,14.0,75,0.00,CLR,,0.00,WeatherDisplay:10.37,2013-05-03 08:40:00,
2013-05-03 09:50:00,49.5,41.2,29.76,West,264,7.0,17.0,73,0.00,CLR,,0.00,WeatherDisplay:10.37,2013-05-03 08:50:00,
2013-05-03 10:00:00,49.1,41.2,29.75,West,276,6.0,12.0,74,0.00,CLR,,0.00,WeatherDisplay:10.37,2013-05-03 09:00:00,
2013-05-03 10:10:00,50.0,42.4,29.76,WSW,257,3.0,19.0,75,0.00,CLR,,0.00,WeatherDisplay:10.37,2013-05-03 09:10:00,
2013-05-03 10:20:00,51.3,43.3,29.75,SW,231,9.0,15.0,74,0.00,CLR,,0.00,WeatherDisplay:10.37,2013-05-03 09:20:00,
2013-05-03 10:30:00,52.2,43.0,29.75,WSW,252,10.0,19.0,71,0.00,CLR,,0.00,WeatherDisplay:10.37,2013-05-03 09:30:00,
2013-05-03 10:40:00,52.2,42.7,29.76,WSW,252,7.0,16.0,70,0.00,CLR,,0.00,WeatherDisplay:10.37,2013-05-03 09:40:00,
2013-05-03 10:50:00,52.2,41.9,29.76,WSW,246,7.0,17.0,68,0.00,CLR,,0.00,WeatherDisplay:10.37,2013-05-03 09:50:00,
2013-05-03 11:00:00,51.6,41.3,29.75,WSW,246,9.0,12.0,68,0.00,CLR,,0.00,WeatherDisplay:10.37,2013-05-03 10:00:00,
2013-05-03 11:10:00,51.6,41.8,29.75,SW,222,1.0,8.0,69,0.00,CLR,,0.00,WeatherDisplay:10.37,2013-05-03 10:10:00,
2013-05-03 11:20:00,51.7,41.8,29.75,WSW,240,2.0,12.0,69,0.00,CLR,,0.00,WeatherDisplay:10.37,2013-05-03 10:20:00,
2013-05-03 11:30:00,51.7,41.9,29.75,SW,236,8.0,13.0,69,0.00,CLR,,0.00,WeatherDisplay:10.37,2013-05-03 10:30:00,
2013-05-03 11:40:00,52.2,42.7,29.74,SW,229,5.0,8.0,70,0.00,CLR,,0.00,WeatherDisplay:10.37,2013-05-03 10:40:00,
2013-05-03 11:50:00,51.5,41.7,29.74,SW,220,7.0,8.0,69,0.02,RA,,0.02,WeatherDisplay:10.37,2013-05-03 10:50:00,
2013-05-03 12:00:00,50.9,41.5,29.74,SW,216,6.0,14.0,70,0.00,CLR,,0.02,WeatherDisplay:10.37,2013-05-03 11:00:00,
2013-05-03 12:10:00,50.2,41.9,29.74,SSW,210,7.0,14.0,73,0.00,CLR,,0.02,WeatherDisplay:10.37,2013-05-03 11:10:00,
2013-05-03 12:20:00,50.0,42.0,29.74,SSW,209,10.0,15.0,74,0.00,CLR,,0.02,WeatherDisplay:10.37,2013-05-03 11:20:00,
2013-05-03 12:30:00,50.2,42.6,29.74,SW,227,3.0,13.0,75,0.00,CLR,,0.02,WeatherDisplay:10.37,2013-05-03 11:30:00,
2013-05-03 12:40:00,50.4,43.1,29.74,SW,224,3.0,12.0,76,0.02,RA,,0.04,WeatherDisplay:10.37,2013-05-03 11:40:00,
2013-05-03 12:50:00,50.4,43.4,29.73,SW,214,8.0,12.0,77,0.00,CLR,,0.04,WeatherDisplay:10.37,2013-05-03 11:50:00,
2013-05-03 13:00:00,50.4,43.4,29.73,SW,215,8.0,17.0,77,0.00,CLR,,0.04,WeatherDisplay:10.37,2013-05-03 12:00:00,
2013-05-03 13:10:00,50.3,43.3,29.73,SSW,212,8.0,13.0,77,0.02,RA,,0.06,WeatherDisplay:10.37,2013-05-03 12:10:00,
2013-05-03 13:20:00,50.2,43.2,29.72,SSW,208,6.0,12.0,77,0.02,RA,,0.08,WeatherDisplay:10.37,2013-05-03 12:20:00,
2013-05-03 13:30:00,50.0,43.4,29.72,SW,224,5.0,15.0,78,0.00,,,0.08,WeatherDisplay:10.37,2013-05-03 12:30:00,
2013-05-03 13:40:00,50.2,43.6,29.72,SW,229,6.0,20.0,78,0.02,RA,,0.10,WeatherDisplay:10.37,2013-05-03 12:40:00,
2013-05-03 13:50:00,50.2,43.6,29.71,SSW,205,15.0,19.0,78,0.02,RA,,0.12,WeatherDisplay:10.37,2013-05-03 12:50:00,
2013-05-03 14:00:00,50.2,43.9,29.70,SW,223,10.0,20.0,79,0.00,CLR,,0.12,WeatherDisplay:10.37,2013-05-03 13:00:00,
2013-05-03 14:10:00,50.0,43.7,29.70,SW,227,3.0,14.0,79,0.00,CLR,,0.12,WeatherDisplay:10.37,2013-05-03 13:10:00,
2013-05-03 14:20:00,49.6,43.4,29.70,SW,215,16.0,21.0,79,0.02,RA,,0.14,WeatherDisplay:10.37,2013-05-03 13:20:00,
2013-05-03 14:30:00,49.8,43.9,29.69,SSW,213,10.0,18.0,80,0.00,CLR,,0.14,WeatherDisplay:10.37,2013-05-03 13:30:00,
2013-05-03 14:40:00,49.6,43.7,29.69,SSW,213,8.0,18.0,80,0.04,RA,,0.18,WeatherDisplay:10.37,2013-05-03 13:40:00,
2013-05-03 14:50:00,49.6,43.7,29.69,SW,219,8.0,20.0,80,0.02,RA,,0.20,WeatherDisplay:10.37,2013-05-03 13:50:00,
2013-05-03 15:00:00,49.1,43.2,29.68,SSW,209,17.0,21.0,80,0.00,,,0.20,WeatherDisplay:10.37,2013-05-03 14:00:00,
2013-05-03 15:10:00,48.9,43.4,29.67,SSW,213,9.0,15.0,81,0.02,RA,,0.22,WeatherDisplay:10.37,2013-05-03 14:10:00,
2013-05-03 15:20:00,49.1,43.8,29.66,SW,223,9.0,23.0,82,0.00,CLR,,0.22,WeatherDisplay:10.37,2013-05-03 14:20:00,
2013-05-03 15:30:00,48.9,44.0,29.66,SSW,207,8.0,15.0,83,0.04,RA,,0.26,WeatherDisplay:10.37,2013-05-03 14:30:00,
2013-05-03 15:40:00,48.7,43.8,29.66,SSW,204,7.0,15.0,83,0.02,RA,,0.28,WeatherDisplay:10.37,2013-05-03 14:40:00,
2013-05-03 15:50:00,48.6,43.6,29.65,SW,219,14.0,22.0,83,0.04,RA,,0.32,WeatherDisplay:10.37,2013-05-03 14:50:00,
2013-05-03 16:00:00,48.4,43.5,29.64,SW,221,14.0,21.0,83,0.02,RA,,0.34,WeatherDisplay:10.37,2013-05-03 15:00:00,
2013-05-03 16:10:00,48.4,43.8,29.63,SW,223,16.0,21.0,84,0.02,RA,,0.36,WeatherDisplay:10.37,2013-05-03 15:10:00,
2013-05-03 16:30:00,48.4,43.8,29.62,SW,235,10.0,24.0,84,0.00,CLR,,0.37,WeatherDisplay:10.37,2013-05-03 15:30:00,
2013-05-03 16:40:00,48.4,43.8,29.61,SSW,212,15.0,24.0,84,0.04,RA,,0.41,WeatherDisplay:10.37,2013-05-03 15:40:00,
2013-05-03 16:50:00,48.5,44.2,29.60,SSW,211,17.0,22.0,85,0.02,RA,,0.43,WeatherDisplay:10.37,2013-05-03 15:50:00,
2013-05-03 17:00:00,48.6,44.3,29.59,SW,233,12.0,18.0,85,0.02,RA,,0.45,WeatherDisplay:10.37,2013-05-03 16:00:00,
2013-05-03 17:10:00,48.6,44.3,29.59,SW,215,10.0,21.0,85,0.02,RA,,0.47,WeatherDisplay:10.37,2013-05-03 16:10:00,
2013-05-03 17:20:00,48.5,44.2,29.59,SW,221,7.0,20.0,85,0.04,RA,,0.51,WeatherDisplay:10.37,2013-05-03 16:20:00,
2013-05-03 17:30:00,48.6,44.6,29.58,SW,222,15.0,25.0,86,0.02,RA,,0.53,WeatherDisplay:10.37,2013-05-03 16:30:00,
2013-05-03 17:40:00,48.7,44.7,29.57,SW,226,14.0,21.0,86,0.02,RA,,0.55,WeatherDisplay:10.37,2013-05-03 16:40:00,
2013-05-03 17:50:00,48.6,44.6,29.57,SW,219,17.0,25.0,86,0.06,RA,,0.61,WeatherDisplay:10.37,2013-05-03 16:50:00,
2013-05-03 18:00:00,48.7,44.7,29.57,SSW,210,10.0,28.0,86,0.04,RA,,0.65,WeatherDisplay:10.37,2013-05-03 17:00:00,
2013-05-03 18:10:00,48.6,44.6,29.56,SSW,210,14.0,22.0,86,0.04,RA,,0.69,WeatherDisplay:10.37,2013-05-03 17:10:00,
2013-05-03 18:20:00,48.7,45.0,29.55,SW,231,13.0,22.0,87,0.06,RA,,0.75,WeatherDisplay:10.37,2013-05-03 17:20:00,
2013-05-03 18:30:00,48.7,45.0,29.54,SSW,213,8.0,26.0,87,0.02,RA,,0.77,WeatherDisplay:10.37,2013-05-03 17:30:00,
2013-05-03 18:40:00,48.7,45.0,29.54,SW,222,5.0,22.0,87,0.02,RA,,0.79,WeatherDisplay:10.37,2013-05-03 17:40:00,
2013-05-03 18:50:00,48.5,44.8,29.53,WSW,244,12.0,21.0,87,0.00,,,0.79,WeatherDisplay:10.37,2013-05-03 17:50:00,
2013-05-03 19:00:00,47.8,43.9,29.54,WSW,256,6.0,10.0,86,0.02,RA,,0.81,WeatherDisplay:10.37,2013-05-03 18:00:00,
2013-05-03 19:10:00,46.7,42.7,29.53,West,266,9.0,12.0,86,0.02,RA,,0.83,WeatherDisplay:10.37,2013-05-03 18:10:00,
2013-05-03 19:20:00,46.0,42.1,29.53,WSW,253,2.0,13.0,86,0.00,,,0.83,WeatherDisplay:10.37,2013-05-03 18:20:00,
2013-05-03 19:30:00,45.9,41.9,29.52,WSW,237,9.0,19.0,86,0.00,CLR,,0.83,WeatherDisplay:10.37,2013-05-03 18:30:00,
2013-05-03 19:40:00,46.0,42.1,29.51,SW,233,8.0,15.0,86,0.00,CLR,,0.83,WeatherDisplay:10.37,2013-05-03 18:40:00,
2013-05-03 19:50:00,46.8,42.8,29.51,SW,221,3.0,17.0,86,0.02,RA,,0.86,WeatherDisplay:10.37,2013-05-03 18:50:00,
2013-05-03 20:00:00,46.9,43.0,29.51,SW,226,3.0,4.0,86,0.02,RA,,0.88,WeatherDisplay:10.37,2013-05-03 19:00:00,
2013-05-03 20:10:00,46.4,42.4,29.52,SW,226,3.0,4.0,86,0.04,RA,,0.92,WeatherDisplay:10.37,2013-05-03 19:10:00,
2013-05-03 20:20:00,45.5,41.6,29.52,West,281,7.0,7.0,86,0.00,CLR,,0.92,WeatherDisplay:10.37,2013-05-03 19:20:00,
2013-05-03 20:30:00,45.0,40.7,29.51,West,273,8.0,8.0,85,0.02,RA,,0.94,WeatherDisplay:10.37,2013-05-03 19:30:00,
2013-05-03 20:40:00,44.8,40.2,29.52,West,271,7.0,13.0,84,0.00,CLR,,0.94,WeatherDisplay:10.37,2013-05-03 19:40:00,
2013-05-03 20:50:00,44.2,39.1,29.53,West,270,22.0,22.0,82,0.00,CLR,,0.94,WeatherDisplay:10.37,2013-05-03 19:50:00,
2013-05-03 21:00:00,43.3,38.2,29.53,West,275,16.0,22.0,82,0.00,CLR,,0.94,WeatherDisplay:10.37,2013-05-03 20:00:00,
2013-05-03 21:10:00,42.3,36.8,29.53,West,262,9.0,12.0,81,0.00,CLR,,0.94,WeatherDisplay:10.37,2013-05-03 20:10:00,
2013-05-03 21:20:00,41.6,36.5,29.53,West,277,7.0,20.0,82,0.00,CLR,,0.94,WeatherDisplay:10.37,2013-05-03 20:20:00,
2013-05-03 21:30:00,40.9,35.8,29.53,WSW,257,8.0,12.0,82,0.00,CLR,,0.94,WeatherDisplay:10.37,2013-05-03 20:30:00,
2013-05-03 21:40:00,40.6,35.6,29.54,WNW,289,8.0,8.0,82,0.00,CLR,,0.94,WeatherDisplay:10.37,2013-05-03 20:40:00,
2013-05-03 21:50:00,40.4,35.3,29.54,WNW,294,8.0,8.0,82,0.00,CLR,,0.94,WeatherDisplay:10.37,2013-05-03 20:50:00,
2013-05-03 22:00:00,39.9,34.9,29.54,WNW,294,8.0,8.0,82,0.00,CLR,,0.94,WeatherDisplay:10.37,2013-05-03 21:00:00,
2013-05-03 22:10:00,40.1,35.4,29.55,WNW,294,8.0,8.0,83,0.00,CLR,,0.94,WeatherDisplay:10.37,2013-05-03 21:10:00,
2013-05-03 22:20:00,40.1,35.4,29.55,WNW,294,8.0,8.0,83,0.00,CLR,,0.94,WeatherDisplay:10.37,2013-05-03 21:20:00,
2013-05-03 22:30:00,39.7,35.0,29.54,WNW,294,8.0,8.0,83,0.02,RA,,0.96,WeatherDisplay:10.37,2013-05-03 21:30:00,
2013-05-03 22:40:00,39.6,34.5,29.55,WNW,294,8.0,8.0,82,0.00,CLR,,0.96,WeatherDisplay:10.37,2013-05-03 21:40:00,
2013-05-03 22:50:00,39.2,34.2,29.55,WNW,294,8.0,8.0,82,0.00,CLR,,0.96,WeatherDisplay:10.37,2013-05-03 21:50:00,
2013-05-03 23:00:00,38.6,33.0,29.55,WNW,294,8.0,8.0,80,0.00,CLR,,0.96,WeatherDisplay:10.37,2013-05-03 22:00:00,
2013-05-03 23:10:00,37.9,32.3,29.55,WNW,294,8.0,8.0,80,0.00,CLR,,0.96,WeatherDisplay:10.37,2013-05-03 22:10:00,
2013-05-03 23:20:00,37.9,32.3,29.56,WNW,294,8.0,8.0,80,0.00,CLR,,0.96,WeatherDisplay:10.37,2013-05-03 22:20:00,
2013-05-03 23:30:00,38.1,32.8,29.57,WNW,294,8.0,8.0,81,0.00,CLR,,0.96,WeatherDisplay:10.37,2013-05-03 22:30:00,
2013-05-03 23:40:00,37.8,32.1,29.56,WNW,294,8.0,8.0,80,0.00,CLR,,0.96,WeatherDisplay:10.37,2013-05-03 22:40:00,
2013-05-03 23:50:00,37.0,31.4,29.57,WNW,294,8.0,8.0,80,0.00,CLR,,0.96,WeatherDisplay:10.37,2013-05-03 22:50:00,